Regional Weather Roundup
Issued by NWS

Home | Current Version | Previous Version | Graphics & Text | Print | Product List | Glossary On
Versions: 1 2 3 4 5 6 7 8 9 10 11 12 13 14 15 16 17 18 19 20 21 22 23 24 25 26 27 28
000
ASUS45 KCYS 290810
RWRWY

WYOMING REGIONAL WEATHER ROUNDUP
NATIONAL WEATHER SERVICE CHEYENNE WY
200 AM MDT FRI APR 29 2016

NOTE:  "FAIR" INDICATES FEW OR NO CLOUDS BELOW 12,000 FEET
WITH NO SIGNIFICANT WEATHER AND/OR OBSTRUCTIONS TO VISIBILITY.

WYZ001-290900-
YELLOWSTONE NATIONAL PARK

CITY           SKY/WX    TMP DP  RH WIND       PRES   REMARKS
LK YELLOWSTONE   N/A     26  21  81 CALM      29.97R
W YELLOWSTONE  NOT AVBL

$$
WYZ002>013-054>058-071-098>099-290900-
NORTHERN WYOMING

CITY           SKY/WX    TMP DP  RH WIND       PRES   REMARKS
JACKSON        CLOUDY    34  34 100 N6        29.95S WCI  29
CODY           CLOUDY    34  30  86 CALM      30.02F
GREYBULL       CLOUDY    41  32  70 NW3       30.03F
WORLAND        CLOUDY    40  30  67 SE10      30.03F WCI  33
SHERIDAN       CLOUDY    37  33  85 E5        30.06F WCI  33
BUFFALO          N/A    N/A N/A N/A MISG      30.06F
GILLETTE       CLOUDY    34  33  96 CALM      30.07F
HULETT         CLOUDY    34  32  93 CALM      30.09F
NEWCASTLE      CLOUDY    34  34 100 S5        30.10S WCI  30

$$
WYZ014>020-022>026-101>103-290900-
CENTRAL WYOMING

CITY           SKY/WX    TMP DP  RH WIND       PRES   REMARKS
BIG PINEY      FAIR      29  24  82 SW3       29.95F
PINEDALE       FAIR      30  28  93 NW6       29.95F WCI  24
DUBOIS         CLOUDY    27  25  93 SE9       30.00S WCI  17
LANDER         CLOUDY    33  27  78 NW7       30.00F WCI  27
RIVERTON       CLOUDY    34  27  75 NE3       30.03F
CASPER         CLOUDY    32  29  88 E10       30.03F WCI  24
DOUGLAS        CLOUDY    34  31  88 CALM      30.07S

$$
WYZ021-027>030-104>119-290900-
SOUTHERN WYOMING

CITY           SKY/WX    TMP DP  RH WIND       PRES   REMARKS
EVANSTON       CLOUDY    31  26  82 E13G22    29.91S WCI  21
FORT BRIDGER   CLOUDY    32  32 100 E13       29.96R WCI  22
ROCK SPRINGS   CLOUDY    31  25  78 NE22G28   29.94F WCI  18
DIXON          PTSUNNY   35  32  89 NE7       29.91F WCI  29
RAWLINS        CLOUDY    30  28  92 NE15      29.96S WCI  19
SARATOGA       FAIR      30  30 100 W5        29.95S WCI  25
LARAMIE        CLOUDY    29  27  92 SE18      29.97F WCI  16
CHEYENNE       CLOUDY    32  31  96 SE10      30.02F FOG     WCI  24
TORRINGTON     CLOUDY    34  33  96 E7        30.08S WCI  28
PINE BLUFFS    CLOUDY    32  32 100 E3        30.05F

$$




USA.gov is the U.S. government's official web portal to all federal, state and local government web resources and services.